Regional Weather Roundup
Issued by NWS

Home | Current Version | Previous Version | Graphics & Text | Print | Product List | Glossary On
Versions: 1 2 3 4 5 6 7 8 9 10 11 12 13 14 15 16 17 18 19 20 21 22 23 24 25 26 27 28 29 30 31 32 33 34 35 36 37 38 39 40 41 42 43 44 45 46 47 48 49 50
176
ASUS43 KLMK 231610
RWRKY
KENTUCKY REGIONAL WEATHER ROUNDUP
NATIONAL WEATHER SERVICE LOUISVILLE KY
1200 PM EDT TUE MAY 23 2017

NOTE "FAIR" INDICATES FEW OR NO CLOUDS BELOW 12,000 FEET
WITH NO SIGNIFICANT WEATHER AND/OR OBSTRUCTIONS TO VISIBILITY.

KYZ001>023-026-027-061>063-070>075-231700-
WESTERN AND SOUTH CENTRAL KENTUCKY

CITY           SKY/WX    TMP DP  RH WIND       PRES   REMARKS
PADUCAH        MOSUNNY   74  51  44 CALM      29.76F
HENDERSON      MOSUNNY   72  52  49 NE6       29.77F
OWENSBORO      CLOUDY    71  52  50 CALM      29.78F
HOPKINSVILLE   CLOUDY    71  49  45 CALM      29.76F
BOWLING GREEN  CLOUDY    71  59  65 CALM      29.77F
GLASGOW        CLOUDY    69  57  65 W3        29.78S
$$

KYZ024-025-028>034-038-045-046-053-231700-
NORTH CENTRAL KENTUCKY

CITY           SKY/WX    TMP DP  RH WIND       PRES   REMARKS
LOUISVILLE/SDF CLOUDY    70  55  59 CALM      29.78F
LOUISVILLE/LOU CLOUDY    71  56  58 S5        29.78F
FORT KNOX      MOSUNNY   68  56  66 N3        29.77F
$$

KYZ035>037-039>044-047>052-055>060-089>105-231700-
NORTHEAST KENTUCKY

CITY           SKY/WX    TMP DP  RH WIND       PRES   REMARKS
LEXINGTON      PTSUNNY   68  55  63 E6        29.80F
COVINGTON      MOSUNNY   69  52  54 SE8       29.80F
FRANKFORT      CLOUDY    69  54  58 NE6       29.79F
$$

KYZ054-064>069-076>088-106>120-231700-
SOUTHEAST KENTUCKY

CITY           SKY/WX    TMP DP  RH WIND       PRES   REMARKS
JACKSON        CLOUDY    67  58  72 CALM      29.81F
LONDON         CLOUDY    66  58  75 SE3       29.79F
SOMERSET       CLOUDY    64  55  72 S3        29.81S
MIDDLESBORO    CLOUDY    67  59  75 CALM      29.81F
MONTICELLO     CLOUDY    67  60  78 VRB7      29.81F
$$





USA.gov is the U.S. government's official web portal to all federal, state and local government web resources and services.